Wind_Speed
17 21 22 17 14 15 8 1 2 7 7 5 5 7 8 11 17 15 9 5 1 3 4 4 4 1 2 1 2 4 3 4 2 2 2 1 2 1 3 1 3 3 2 2 1 3 2 5 4 3 3 1 0 1
14 19 22 17 14 12 11 5 3 3 4 8 8 6 8 13 11 14 13 9 5 2 5 5 5 6 6 4 2 3 3 1 2 2 2 1 3 2 2 2 2 3 2 3 3 2 2 5 2 0 1 1 2 3
13 17 20 17 15 12 11 6 6 5 5 5 10 8 8 10 8 10 11 11 8 3 2 2 2 3 3 5 5 2 1 1 1 1 3 2 4 1 3 2 2 3 3 3 3 5 7 7 5 4 4 3 3 2
13 16 17 15 15 13 12 8 7 8 8 4 6 6 6 11 10 8 7 10 6 2 3 3 6 6 4 5 6 6 3 3 2 1 2 2 3 1 2 3 3 3 7 5 7 9 4 10 9 5 5 5 5 6
14 17 17 13 14 13 13 9 8 7 6 4 3 4 5 6 9 6 4 7 7 2 3 3 5 8 6 6 6 6 5 4 3 3 3 2 0 2 2 2 7 9 8 5 4 4 3 3 3 7 7 6 7 7
14 16 18 14 13 12 11 10 8 7 7 6 4 2 2 3 4 4 2 3 4 4 3 2 4 5 6 4 4 5 7 5 3 3 2 2 3 2 3 3 6 11 9 8 3 4 2 3 3 5 7 8 8 8
16 16 18 14 11 11 12 8 7 7 8 7 6 3 2 2 3 5 4 2 4 2 1 4 2 4 6 4 3 3 4 4 3 2 4 3 4 3 3 7 8 10 10 9 9 6 3 6 3 5 6 7 8 10
18 17 17 15 12 11 10 6 6 7 8 8 4 3 3 1 4 5 4 3 1 2 2 1 2 2 4 2 3 3 2 3 3 3 2 3 2 5 5 13 4 8 10 10 10 10 7 5 5 6 6 8 10 12
20 18 17 15 12 12 9 5 3 4 5 4 3 5 3 2 2 6 5 5 4 5 3 3 2 1 4 1 2 2 3 3 3 3 3 3 4 7 7 8 12 14 12 9 12 9 7 6 5 6 7 9 12 15
22 20 18 16 13 13 10 9 8 5 1 2 6 2 2 3 4 3 2 1 2 4 5 4 3 2 5 3 2 2 2 2 2 1 1 4 6 22 14 10 9 14 14 12 14 9 9 8 7 7 9 11 14 19
24 23 20 17 14 15 13 14 13 8 4 3 3 3 2 3 5 2 4 3 3 3 5 3 6 3 5 3 3 3 1 1 3 2 2 3 4 5 10 16 13 14 15 12 9 6 5 5 6 7 11 14 19 22
27 24 20 18 17 18 17 18 17 13 5 3 2 2 3 2 2 1 2 2 4 1 2 2 4 2 3 3 3 2 2 1 4 4 2 4 3 6 10 13 14 14 15 14 9 7 6 6 8 11 14 18 20 23
29 27 22 20 19 20 19 19 20 16 8 3 3 2 2 2 2 5 5 3 3 6 7 4 2 3 2 2 1 2 3 4 1 3 4 5 4 8 12 15 16 15 15 12 10 7 7 8 11 13 16 18 20 23
32 29 25 22 22 22 21 19 23 20 10 4 4 3 5 4 5 5 2 2 3 4 9 10 4 2 2 3 2 3 1 2 3 4 6 2 11 13 15 17 18 17 14 12 9 7 8 10 12 14 16 19 21 22
36 31 26 25 25 25 23 21 24 22 10 4 4 5 7 6 4 4 7 3 4 6 10 8 4 4 2 2 3 1 2 5 6 5 2 1 15 19 19 18 17 15 13 10 7 8 10 12 14 16 17 18 19 20
38 30 31 28 29 29 25 22 22 22 4 4 8 4 5 3 5 6 9 6 8 9 7 2 3 3 5 3 4 7 3 6 3 3 5 7 17 20 19 17 15 13 11 8 7 9 10 13 13 14 15 16 16 17
41 36 36 32 32 32 28 25 18 10 8 7 7 13 9 5 4 7 9 7 14 15 3 3 6 5 3 3 4 5 5 3 7 8 7 13 17 18 18 16 13 11 8 6 8 9 11 11 12 13 12 13 14 13
48 42 32 35 38 32 31 22 13 9 10 13 6 10 12 10 6 6 10 14 14 12 9 4 3 4 5 5 4 3 8 15 11 7 10 14 16 16 15 13 12 9 7 7 9 10 9 10 10 10 11 12 11 11
49 37 34 42 45 34 15 13 12 7 15 6 14 14 13 10 18 15 14 18 13 12 7 8 4 5 5 7 7 7 12 11 8 10 12 14 15 15 14 12 10 8 7 8 9 8 8 8 8 8 9 10 9 11
46 34 39 48 49 17 8 7 14 11 6 7 10 10 12 7 15 18 17 18 20 8 6 5 6 9 11 15 12 14 17 12 16 16 16 17 17 15 13 11 9 7 8 8 8 7 6 7 7 7 7 8 9 10
34 36 42 46 41 13 8 9 9 7 7 9 8 14 6 10 10 11 12 19 12 7 5 15 19 29 28 28 25 19 19 16 24 24 21 22 20 17 14 12 9 9 9 8 8 8 6 6 7 6 6 8 9 11
39 46 39 40 16 14 10 13 6 9 7 3 6 8 4 5 7 9 13 14 11 22 23 26 30 34 36 34 31 23 21 18 24 23 14 17 20 19 17 13 11 10 10 9 8 8 7 6 7 7 7 8 10 11
45 39 17 13 6 11 6 18 9 11 5 7 7 4 4 5 6 14 7 12 18 31 33 37 36 33 33 29 24 21 20 23 26 24 17 16 16 16 14 12 12 11 10 9 8 7 6 6 6 7 8 9 10 11
31 24 8 12 13 7 11 8 8 9 7 6 6 4 4 6 9 6 5 9 27 26 28 37 38 35 31 27 26 24 26 28 26 22 19 19 18 16 14 12 12 11 10 8 8 7 7 7 7 8 8 9 10 12
11 11 8 7 10 7 7 7 6 5 5 5 6 4 4 7 5 5 4 6 20 30 36 37 36 39 39 32 32 30 29 31 30 26 22 20 17 16 14 13 13 12 10 9 7 7 7 7 8 8 8 9 10 11
7 10 14 12 10 7 8 7 10 6 5 5 7 4 7 4 5 7 4 14 31 36 37 39 41 41 41 39 34 33 36 34 30 25 22 19 16 14 12 12 14 13 11 9 8 7 7 7 7 7 7 8 9 10
7 7 7 10 11 11 6 5 8 4 7 8 6 7 5 5 7 5 14 24 31 32 30 36 38 39 40 38 36 33 36 35 32 26 18 18 17 15 14 13 13 11 9 9 8 7 7 7 6 5 6 7 8 9
5 11 8 13 7 10 5 5 7 9 5 9 12 7 10 9 7 14 14 14 15 23 27 21 22 30 34 35 34 33 37 36 31 25 21 18 17 16 15 14 12 10 10 9 8 7 6 5 5 4 4 5 7 8
6 13 15 5 4 5 6 7 8 13 17 18 9 8 6 16 28 26 23 21 20 20 19 18 20 24 29 29 27 34 39 39 36 29 25 23 21 19 17 15 12 11 10 8 7 6 5 3 2 2 3 4 5 7
8 23 5 5 7 8 11 17 13 23 23 26 29 27 29 34 33 31 28 26 25 23 18 17 22 23 28 30 33 38 38 35 31 25 22 20 17 15 16 14 13 12 11 9 8 6 4 2 0 1 2 4 5 6
19 17 6 6 4 8 17 21 19 21 26 24 30 21 21 20 27 26 27 27 25 21 19 17 22 24 27 34 41 43 41 36 31 26 21 16 17 16 15 16 14 13 12 10 8 6 4 2 0 1 2 3 4 4
12 12 7 5 3 7 12 11 9 9 8 8 10 13 14 8 9 20 23 23 24 23 22 21 22 24 27 34 40 39 33 31 29 24 19 17 17 16 16 16 15 14 12 9 7 6 4 3 2 2 1 1 2 3
5 6 5 6 4 5 9 8 7 4 5 5 7 8 10 8 7 13 20 20 22 23 22 21 17 21 28 31 36 35 27 22 22 20 18 18 16 16 17 16 15 13 11 9 8 6 5 4 4 3 3 3 4 4
Wind_Direction
316 321 330 335 337 341 348 340 14 35 22 356 343 318 320 347 11 25 25 7 21 80 160 173 161 178 168 233 215 125 195 200 239 260 278 80 274 98 263 267 305 290 291 238 260 254 251 158 156 254 55 42 189 188
309 314 321 321 327 326 331 315 256 278 350 11 330 287 294 303 337 12 18 12 50 139 184 187 176 176 185 181 132 169 351 351 353 266 242 297 228 206 317 255 186 263 296 338 268 9 94 183 275 201 297 317 237 234
298 304 315 310 320 316 319 310 287 264 277 326 337 317 287 286 288 341 2 357 5 52 84 147 252 212 194 192 178 209 169 261 333 260 331 343 266 287 252 234 273 204 203 249 310 182 231 225 231 247 242 234 227 219
279 289 307 301 310 308 310 305 293 282 273 282 338 326 342 287 273 303 349 3 5 352 282 225 239 236 257 235 212 203 227 220 261 256 276 268 268 210 303 337 272 5 156 234 258 258 256 241 231 226 214 219 221 237
265 282 298 291 300 300 301 296 289 285 282 271 331 318 336 316 261 269 314 336 352 7 331 322 260 246 247 242 237 228 215 204 198 223 231 249 301 248 203 278 240 192 219 210 265 93 276 94 175 209 205 215 225 239
251 274 287 283 293 293 291 287 288 276 270 255 269 260 283 335 261 247 315 318 297 350 347 298 263 241 238 238 226 217 215 225 222 231 225 220 233 250 262 258 255 209 227 232 261 179 159 188 219 216 205 223 245 257
247 262 279 272 278 281 282 284 288 270 260 251 241 249 211 331 216 191 179 282 325 296 6 299 290 300 230 228 243 239 238 244 228 247 225 220 199 219 255 251 249 208 207 203 210 202 206 227 222 227 230 251 265 275
240 250 268 266 267 261 263 277 277 277 241 209 234 229 203 209 227 230 245 1 0 240 239 222 271 307 197 209 239 233 254 254 247 248 229 219 176 221 254 244 225 191 191 202 203 205 203 199 221 235 251 266 276 284
236 243 257 258 257 249 243 226 167 119 150 207 202 190 152 141 232 233 254 295 240 206 190 190 216 305 173 217 226 232 223 253 252 254 220 203 203 223 235 223 196 194 192 193 188 197 207 209 227 249 267 279 288 295
232 240 246 247 239 233 216 186 164 166 199 152 158 195 201 166 188 275 284 265 250 228 219 229 186 167 157 179 191 270 240 272 251 181 165 230 254 242 242 222 207 202 194 190 175 191 208 225 242 258 276 288 292 299
229 235 240 237 230 221 204 187 176 172 185 204 212 231 226 183 160 172 253 220 163 253 209 200 205 162 190 175 199 216 264 263 255 134 248 254 263 229 213 200 197 193 194 185 192 190 201 227 243 269 288 299 305 306
228 230 233 224 218 212 200 190 183 188 200 219 219 215 194 178 124 151 228 240 206 215 202 224 169 162 164 181 207 196 261 264 255 142 240 254 239 191 167 172 182 179 181 182 192 202 217 249 276 295 304 308 309 310
223 225 224 216 212 203 196 190 183 191 193 206 237 240 228 181 203 205 199 207 232 180 168 175 182 158 143 153 209 201 216 240 9 232 241 239 135 172 168 168 168 172 180 185 192 213 245 275 294 304 310 312 311 312
220 220 217 208 204 196 189 185 180 186 185 227 202 228 219 189 235 201 217 111 151 162 159 155 143 190 156 173 180 244 210 204 256 246 239 236 184 171 165 166 173 170 178 186 202 234 267 290 303 312 315 316 318 319
216 215 208 203 197 186 183 185 184 182 183 222 209 231 220 225 227 196 197 191 202 162 160 142 133 183 166 197 204 291 239 249 227 242 268 293 172 170 163 164 172 178 186 196 220 258 280 295 305 312 318 322 325 327
209 200 203 198 188 179 182 182 178 191 202 220 233 245 219 231 206 214 227 224 206 165 179 173 131 174 221 188 179 214 228 238 250 235 285 183 171 172 169 171 177 186 193 211 244 270 289 303 311 318 326 330 333 331
200 200 198 189 182 179 184 182 170 175 206 219 240 221 228 262 216 192 193 182 174 153 207 202 191 194 108 190 226 200 220 281 313 292 204 182 176 173 175 177 185 194 208 236 266 284 299 306 316 325 332 334 336 342
201 203 192 182 174 171 183 188 177 197 228 228 214 225 216 228 208 201 199 185 164 187 160 216 160 199 204 209 219 215 260 283 282 234 199 179 174 173 176 182 190 207 229 260 281 292 299 310 322 329 333 339 345 347
201 196 183 176 174 171 179 193 190 209 218 218 221 220 216 226 226 228 222 206 198 190 183 166 213 221 217 211 220 271 299 278 229 197 190 181 179 179 183 191 200 223 253 276 282 290 298 307 317 326 333 339 338 340
198 180 174 177 177 175 185 198 193 221 194 217 213 210 212 211 225 220 209 202 199 186 217 219 217 212 217 220 237 295 311 283 217 190 193 192 191 193 197 204 218 244 265 272 276 287 296 303 313 321 327 326 327 332
165 164 176 176 186 203 199 181 188 204 197 195 201 196 201 217 212 193 192 202 200 218 231 230 233 235 243 256 264 274 285 265 215 207 210 202 203 204 210 218 234 252 258 262 271 278 281 291 302 309 315 318 322 331
159 169 166 178 189 193 212 198 184 169 166 177 174 190 191 203 203 201 189 194 228 232 231 240 242 244 246 249 258 265 272 243 213 209 225 221 211 213 217 226 241 248 252 259 261 265 278 289 302 306 304 313 322 328
162 170 170 170 172 180 193 183 168 175 165 178 157 188 218 217 205 177 213 220 238 240 240 243 248 247 250 249 248 250 242 215 205 207 216 213 212 218 224 235 241 245 249 255 256 265 277 287 299 300 303 313 323 328
167 168 156 171 194 173 158 178 160 154 141 166 176 205 212 202 171 218 245 238 241 247 248 246 238 235 235 236 243 239 221 204 201 204 207 209 213 221 226 232 236 241 246 248 254 266 273 287 297 296 302 314 323 325
146 181 198 189 175 145 166 154 158 174 161 174 189 200 189 172 206 235 237 247 246 247 247 239 232 233 233 245 242 228 211 204 200 199 203 208 215 220 223 230 236 238 239 239 251 263 269 285 288 295 308 316 319 324
199 183 189 186 165 171 169 146 176 158 141 160 213 143 162 175 225 245 215 237 244 251 247 239 231 226 226 234 235 221 209 202 201 201 204 214 222 227 227 231 238 237 235 236 244 252 265 274 282 294 306 313 318 321
202 186 164 163 149 141 147 115 142 147 173 192 159 164 168 208 236 242 244 253 254 261 262 257 245 238 236 231 229 222 209 200 201 205 204 210 217 222 229 230 234 235 234 230 236 243 252 262 275 291 312 322 325 327
204 167 153 159 138 162 138 154 162 187 176 166 147 177 185 203 227 230 246 267 265 261 256 259 254 243 236 233 227 212 198 196 197 200 203 209 211 219 224 224 226 223 221 223 226 229 239 250 269 298 322 327 325 328
173 156 132 133 121 178 197 177 195 206 175 165 178 197 222 230 245 250 258 267 270 269 270 257 235 226 225 223 215 204 200 197 196 194 202 206 208 213 215 215 215 211 210 210 209 215 224 232 262 323 346 343 341 342
162 165 129 149 164 202 204 199 205 221 211 215 217 228 239 244 248 249 251 253 254 261 268 257 238 223 222 207 196 191 196 201 206 216 216 215 213 210 207 206 204 199 199 198 199 204 198 197 115 13 358 355 356 354
165 171 123 158 216 208 218 217 214 213 214 218 219 225 238 248 252 252 247 244 245 249 250 242 224 218 220 213 201 193 190 197 201 206 214 210 208 202 196 195 192 192 193 192 193 195 191 186 165 349 341 4 6 2
155 174 155 171 200 213 198 195 204 208 215 220 230 229 238 245 255 252 250 241 236 233 241 228 221 225 229 221 207 200 205 199 201 204 204 204 199 189 186 186 186 189 190 190 192 194 192 190 208 236 275 335 349 353
125 128 118 121 135 180 189 172 180 182 204 219 231 221 224 227 241 252 253 241 236 234 220 217 219 247 234 212 196 196 196 198 204 202 196 196 190 184 182 182 184 186 189 192 198 199 200 209 225 242 264 280 293 309
Height
1506 1504 1500 1497 1494 1490 1487 1485 1484 1482 1481 1480 1479 1480 1479 1477 1475 1472 1471 1469 1468 1468 1469 1468 1468 1471 1471 1471 1466 1472 1473 1471 1470 1466 1465 1464 1463 1464 1465 1462 1460 1460 1457 1453 1455 1454 1453 1456 1458 1455 1457 1457 1457 1458
1502 1501 1499 1495 1492 1489 1486 1484 1483 1482 1481 1480 1479 1477 1478 1478 1477 1475 1474 1473 1471 1470 1470 1470 1469 1469 1470 1470 1471 1471 1472 1471 1471 1468 1467 1466 1464 1466 1462 1453 1465 1460 1459 1456 1457 1449 1455 1456 1456 1457 1457 1457 1458 1459
1498 1497 1495 1492 1491 1488 1484 1483 1481 1481 1479 1478 1478 1476 1476 1476 1477 1477 1475 1474 1473 1474 1474 1473 1472 1472 1470 1469 1470 1472 1472 1472 1473 1472 1471 1468 1467 1465 1458 1454 1459 1460 1463 1460 1459 1451 1453 1455 1455 1456 1456 1458 1458 1459
1493 1493 1490 1488 1487 1486 1483 1480 1479 1478 1476 1475 1475 1475 1474 1475 1475 1476 1476 1475 1475 1475 1475 1475 1472 1472 1471 1470 1470 1470 1471 1471 1472 1473 1471 1467 1466 1468 1459 1462 1460 1457 1461 1456 1453 1451 1454 1453 1454 1456 1456 1457 1458 1458
1488 1489 1487 1483 1483 1483 1481 1478 1477 1476 1475 1474 1474 1472 1474 1473 1475 1475 1475 1475 1475 1478 1476 1475 1473 1472 1471 1470 1470 1470 1470 1471 1471 1472 1471 1467 1468 1468 1466 1466 1454 1453 1449 1451 1444 1447 1449 1452 1453 1455 1456 1456 1457 1457
1480 1484 1484 1481 1479 1478 1477 1475 1474 1474 1475 1473 1470 1470 1471 1471 1473 1474 1475 1475 1474 1474 1476 1474 1473 1471 1471 1471 1470 1470 1470 1471 1470 1469 1468 1468 1467 1469 1461 1450 1442 1444 1445 1446 1446 1448 1450 1450 1451 1451 1453 1454 1454 1455
1474 1477 1480 1477 1474 1474 1475 1473 1473 1472 1472 1470 1469 1470 1470 1471 1472 1474 1474 1474 1474 1474 1474 1474 1471 1470 1470 1471 1471 1471 1471 1470 1470 1468 1466 1465 1466 1466 1459 1445 1437 1439 1441 1443 1444 1446 1448 1449 1450 1450 1451 1452 1452 1452
1466 1470 1473 1474 1472 1470 1469 1470 1469 1468 1468 1470 1471 1470 1469 1470 1474 1475 1474 1472 1471 1474 1474 1474 1471 1471 1470 1471 1471 1470 1471 1470 1468 1466 1465 1463 1464 1462 1449 1431 1435 1436 1438 1439 1441 1443 1444 1445 1447 1448 1449 1450 1450 1449
1460 1464 1466 1468 1469 1469 1468 1468 1468 1468 1469 1470 1469 1469 1469 1469 1474 1472 1473 1473 1472 1475 1472 1472 1468 1466 1469 1470 1470 1470 1469 1468 1467 1464 1461 1462 1452 1446 1427 1427 1430 1431 1433 1436 1439 1440 1442 1444 1445 1447 1448 1448 1447 1446
1453 1458 1459 1461 1462 1465 1465 1465 1467 1469 1469 1469 1470 1470 1469 1467 1468 1475 1473 1472 1473 1470 1468 1466 1466 1465 1468 1470 1470 1471 1469 1463 1462 1459 1461 1455 1436 1424 1422 1424 1427 1428 1431 1433 1436 1439 1441 1442 1443 1445 1446 1446 1445 1443
1445 1451 1454 1456 1459 1461 1463 1462 1465 1468 1470 1470 1469 1470 1468 1465 1466 1468 1472 1468 1466 1468 1465 1463 1464 1463 1467 1466 1466 1468 1465 1464 1459 1455 1458 1443 1426 1414 1415 1419 1422 1426 1429 1433 1435 1438 1440 1442 1442 1442 1442 1442 1440 1438
1440 1444 1448 1450 1453 1456 1459 1460 1464 1467 1468 1470 1469 1469 1469 1466 1466 1467 1467 1468 1463 1458 1464 1464 1462 1464 1465 1465 1465 1466 1465 1466 1454 1458 1455 1438 1412 1413 1414 1417 1420 1424 1428 1431 1434 1437 1439 1440 1440 1439 1438 1437 1435 1433
1433 1437 1441 1443 1449 1452 1456 1457 1459 1466 1468 1469 1469 1470 1468 1467 1466 1462 1459 1457 1458 1455 1455 1461 1463 1462 1464 1465 1466 1466 1464 1460 1461 1456 1439 1415 1410 1413 1413 1416 1420 1424 1428 1430 1433 1436 1437 1438 1437 1436 1434 1432 1430 1427
1426 1430 1435 1436 1442 1448 1453 1456 1457 1463 1468 1469 1467 1465 1464 1459 1455 1448 1447 1449 1452 1453 1453 1455 1461 1462 1463 1464 1463 1464 1458 1459 1457 1451 1424 1407 1407 1412 1414 1416 1421 1424 1427 1430 1432 1434 1435 1436 1435 1433 1429 1427 1425 1423
1417 1423 1427 1431 1437 1443 1451 1453 1455 1457 1464 1466 1465 1456 1450 1446 1446 1445 1446 1447 1449 1451 1455 1455 1456 1460 1461 1462 1462 1463 1461 1455 1440 1421 1410 1409 1409 1411 1413 1417 1421 1424 1427 1429 1430 1432 1433 1432 1431 1429 1425 1423 1420 1418
1408 1415 1419 1426 1433 1440 1447 1452 1453 1457 1459 1459 1456 1448 1444 1445 1442 1443 1443 1444 1446 1450 1453 1453 1452 1455 1454 1453 1457 1454 1450 1435 1415 1415 1411 1411 1412 1412 1414 1418 1421 1425 1426 1427 1429 1430 1430 1429 1427 1425 1422 1419 1416 1415
1397 1401 1410 1420 1430 1437 1442 1447 1450 1451 1452 1449 1441 1438 1438 1437 1434 1437 1439 1440 1440 1446 1450 1451 1447 1440 1450 1448 1446 1437 1432 1419 1417 1413 1411 1412 1413 1414 1416 1418 1421 1424 1425 1425 1427 1427 1426 1425 1423 1421 1418 1417 1414 1412
1385 1394 1404 1414 1425 1435 1438 1440 1442 1443 1440 1435 1434 1434 1432 1435 1434 1434 1435 1436 1439 1438 1440 1446 1445 1442 1435 1431 1424 1421 1418 1416 1415 1415 1414 1413 1413 1415 1417 1419 1421 1423 1423 1423 1424 1424 1423 1422 1420 1417 1415 1414 1411 1409
1377 1385 1397 1409 1418 1426 1430 1432 1431 1429 1427 1428 1425 1428 1426 1427 1429 1430 1432 1434 1435 1436 1435 1434 1438 1432 1421 1414 1411 1412 1412 1410 1412 1414 1414 1415 1415 1416 1417 1418 1419 1421 1421 1421 1421 1421 1420 1419 1417 1415 1413 1411 1410 1408
1370 1380 1392 1403 1413 1419 1423 1422 1422 1420 1419 1419 1419 1422 1423 1421 1422 1423 1427 1430 1433 1433 1432 1424 1413 1410 1407 1404 1404 1405 1406 1407 1408 1411 1413 1414 1415 1416 1416 1417 1417 1418 1418 1419 1419 1418 1417 1416 1414 1412 1410 1409 1408 1405
1369 1381 1394 1402 1410 1410 1410 1409 1410 1410 1409 1412 1411 1416 1418 1416 1417 1418 1420 1424 1429 1421 1413 1407 1403 1403 1404 1402 1400 1400 1401 1401 1401 1405 1407 1410 1412 1413 1414 1414 1414 1415 1415 1416 1415 1415 1414 1412 1411 1410 1408 1407 1405 1403
1362 1376 1382 1393 1397 1398 1400 1401 1402 1402 1407 1408 1411 1412 1413 1413 1411 1411 1414 1418 1409 1396 1394 1396 1394 1395 1395 1393 1392 1393 1394 1395 1398 1401 1404 1406 1408 1410 1410 1411 1411 1411 1412 1412 1412 1412 1411 1409 1408 1407 1406 1405 1403 1400
1359 1371 1373 1379 1386 1387 1391 1393 1395 1397 1401 1404 1407 1408 1407 1407 1404 1406 1404 1397 1387 1382 1383 1385 1387 1388 1388 1387 1386 1384 1385 1388 1391 1395 1399 1401 1404 1407 1407 1408 1407 1408 1408 1408 1408 1408 1407 1406 1405 1405 1404 1402 1400 1398
1357 1366 1366 1371 1375 1378 1382 1384 1386 1391 1395 1398 1400 1400 1399 1398 1399 1399 1388 1375 1370 1372 1373 1374 1376 1378 1378 1378 1377 1378 1378 1382 1387 1390 1393 1396 1399 1402 1403 1403 1404 1405 1404 1404 1405 1404 1404 1403 1402 1402 1401 1399 1397 1396
1352 1362 1362 1360 1362 1369 1373 1376 1378 1382 1384 1390 1392 1389 1391 1394 1393 1386 1372 1361 1361 1359 1359 1363 1365 1365 1366 1365 1369 1371 1373 1376 1379 1383 1388 1392 1394 1397 1398 1398 1401 1401 1401 1400 1401 1401 1401 1400 1400 1399 1397 1396 1395 1393
1338 1339 1340 1340 1349 1353 1357 1362 1367 1371 1377 1383 1383 1383 1385 1387 1385 1368 1357 1349 1346 1345 1346 1348 1348 1351 1354 1354 1358 1361 1365 1371 1376 1379 1382 1386 1389 1391 1392 1394 1397 1398 1397 1397 1398 1398 1398 1398 1397 1396 1394 1394 1393 1391
1322 1321 1325 1327 1332 1338 1346 1350 1355 1361 1366 1365 1371 1377 1379 1377 1366 1346 1341 1338 1338 1337 1338 1339 1341 1342 1343 1344 1349 1354 1361 1367 1372 1376 1378 1381 1385 1387 1388 1390 1393 1393 1393 1394 1395 1394 1395 1395 1394 1393 1391 1391 1390 1388
1308 1311 1317 1323 1325 1328 1334 1340 1345 1348 1348 1350 1357 1362 1360 1352 1338 1331 1331 1330 1332 1332 1333 1333 1333 1335 1338 1340 1343 1348 1355 1363 1368 1372 1374 1377 1380 1383 1384 1386 1388 1388 1390 1391 1392 1392 1393 1392 1391 1390 1389 1388 1388 1387
1303 1304 1307 1317 1321 1323 1322 1325 1327 1327 1326 1332 1336 1336 1333 1325 1325 1326 1326 1326 1326 1327 1328 1328 1328 1329 1331 1336 1341 1345 1351 1355 1361 1364 1368 1371 1374 1376 1379 1382 1383 1385 1387 1388 1389 1389 1390 1389 1389 1388 1387 1387 1386 1385
1294 1297 1301 1307 1310 1309 1309 1313 1314 1316 1318 1320 1322 1322 1321 1319 1317 1318 1319 1320 1321 1322 1323 1323 1325 1327 1328 1332 1334 1340 1347 1353 1358 1362 1364 1365 1369 1372 1374 1376 1380 1382 1384 1386 1386 1387 1387 1387 1386 1386 1385 1385 1384 1384
1284 1289 1294 1299 1301 1301 1303 1306 1307 1308 1310 1310 1310 1312 1310 1310 1311 1311 1313 1314 1315 1315 1317 1318 1321 1323 1325 1327 1329 1332 1339 1347 1352 1357 1360 1362 1366 1368 1370 1373 1377 1380 1382 1383 1384 1385 1384 1384 1384 1384 1384 1383 1383 1383
1281 1284 1289 1295 1298 1299 1300 1303 1305 1306 1307 1307 1307 1307 1308 1307 1307 1306 1306 1307 1307 1308 1310 1312 1316 1318 1320 1323 1328 1333 1338 1345 1349 1354 1357 1361 1363 1364 1367 1371 1374 1377 1380 1381 1382 1382 1382 1382 1382 1383 1383 1383 1382 1382
1280 1282 1286 1291 1296 1299 1300 1301 1301 1303 1304 1303 1302 1302 1302 1303 1300 1297 1297 1298 1300 1301 1304 1308 1310 1314 1317 1322 1327 1332 1339 1344 1349 1352 1356 1359 1360 1362 1365 1368 1372 1375 1377 1378 1380 1380 1379 1380 1381 1382 1382 1382 1382 1381